Location: Meanaryar
(48.4161°N, 4.7315°W)
Time: 16:41:51
(UTC+00:00)

Cosmos 2279 Rocket - Pass Details

Date: 18 September 2020
Orbit: 963 x 979 km, 82.9° (Epoch: 29 October)

Event Time Altitude Azimuth Distance (km) Brightness Sun altitude
Exits shadow 22:05:24 56° 272° (W) 1,150 4.4 -33.0°
Maximum altitude 22:05:41 57° 284° (WNW) 1,144 4.4 -33.1°
Drops below altitude 10° 22:11:53 10° 2° (N) 2,743 6.9 -33.7°
Sets 22:14:28 0° 7° (N) 3,695 7.6 -34.0°
